Tracking 28790 objects as of 19-Apr-2024
HD Live streaming from Space Station
objects crossing your sky now

COSMOS 2251 DEB

Track COSMOS 2251 DEB now!
10-day predictions


NORAD ID: 35837
Int'l Code: 1993-036ATK
Perigee: 730.3 km
Apogee: 1,399.7 km
Inclination: 73.7 °
Period: 106.4 minutes
Semi major axis: 7436 km
RCS: 0.001 m2 (small)
Launch date: June 16, 1993
Source: Commonwealth of Independent States (former USSR) (CIS)
Launch site: PLESETSK MISSILE AND SPACE COMPLEX (PKMTR)

Note: This is SATELLITE DEBRIS
Your satellite tracking list
Your tracking list is empty




NASA's NSSDC Master Catalog

Two Line Element Set (TLE):
1 35837U 93036ATK 24109.73896012  .00010880  00000-0  84247-2 0  9993
2 35837  73.7310 123.5645 0450118 130.2995 348.9995 13.53917235497830
Source of the keplerian elements: AFSPC